Weather History for Tacoma Narrows, WA

Change the Weather History Date:

Wednesday, January 15, 2014

  Actual Average Record
Temperature  
Mean Temperature 44 °F -  
Max Temperature 48 °F 44 °F 53 °F (2011)
Min Temperature 41 °F 37 °F 23 °F (2007)
Degree Days  
Heating Degree Days 20    
Moisture  
Dew Point 43 °F    
Average Humidity 92    
Maximum Humidity 100    
Minimum Humidity 80    
Precipitation  
Precipitation 0.00 in - - ()
Sea Level Pressure  
Sea Level Pressure 30.57 in    
Wind  
Wind Speed 1 mph (NNE)    
Max Wind Speed 9 mph    
Max Gust Speed -    
Visibility 5 miles    
Events Fog    
Averages and records for this station are not official NWS values.
T = Trace of Precipitation, MM = Missing Value Source: NWS Daily Summary

Daily Weather History Graph

Daily Weather History Graph

Search for Another Location

Airport:

Trip Planner

Search our weather history database for the weather conditions in past years. The results will help you decide how hot, cold, wet, or windy it might be!

Date:

Astronomy

Jan. 15, 2014 Rise Set
Actual Time 7:52 AM PST 4:47 PM PST
Civil Twilight 7:18 AM PST 5:21 PM PST
Nautical Twilight 6:40 AM PST 5:59 PM PST
Astronomical Twilight 6:03 AM PST 6:36 PM PST
Moon 4:54 PM PST (1/15) 7:08 AM PST (1/15)
Length of Visible Light 10h 03m
Length of Day
8h 55m
Full, 100% of the Moon is Illuminated
Jan 15
Full
Jan 15
Full
Jan 23
Last Quarter
Jan 30
New
Feb 6
First Quarter

Hourly Weather History & Observations

Time (PST) Temp. Windchill Dew Point Humidity Pressure Visibility Wind Dir Wind Speed Gust Speed Precip Events Conditions
12:53 AM 46.0 °F - 44.1 °F 93% 30.59 in 8.0 mi Calm Calm - N/A   Overcast
1:05 AM 46.4 °F - 44.6 °F 93% 30.58 in 5.0 mi Calm Calm - N/A   Overcast
1:20 AM 46.4 °F - 44.6 °F 93% 30.58 in 2.5 mi Calm Calm - N/A   Overcast
1:28 AM 46.4 °F - 44.6 °F 93% 30.58 in 1.0 mi Calm Calm - N/A   Overcast
1:30 AM 46.4 °F - 44.6 °F 93% 30.58 in 0.8 mi Calm Calm - N/A   Mist
1:46 AM 46.4 °F - 44.6 °F 93% 30.58 in 0.5 mi Calm Calm - N/A Fog Fog
1:53 AM 46.0 °F - 44.1 °F 93% 30.59 in 0.5 mi Calm Calm - N/A Fog Fog
2:04 AM 46.4 °F - 44.6 °F 93% 30.59 in 1.2 mi Calm Calm - N/A   Overcast
2:13 AM 44.6 °F - 44.6 °F 100% 30.59 in 0.5 mi Calm Calm - N/A Fog Fog
2:21 AM 44.6 °F - 44.6 °F 100% 30.59 in 0.2 mi Calm Calm - N/A Fog Fog
2:38 AM 44.6 °F - 44.6 °F 100% 30.60 in 0.5 mi Calm Calm - N/A Fog Fog
2:53 AM 45.0 °F - 43.0 °F 93% 30.61 in 1.0 mi Calm Calm - N/A   Overcast
3:00 AM 44.6 °F - 44.6 °F 100% 30.61 in 0.5 mi Calm Calm - N/A Fog Fog
3:10 AM 44.6 °F - 44.6 °F 100% 30.61 in 0.5 mi Calm Calm - N/A Fog Fog
3:19 AM 46.4 °F - 44.6 °F 93% 30.61 in 2.5 mi Calm Calm - N/A   Overcast
3:26 AM 46.4 °F 44.3 °F 44.6 °F 93% 30.61 in 5.0 mi Variable 4.6 mph - N/A   Overcast
3:53 AM 46.0 °F 43.9 °F 44.1 °F 93% 30.62 in 5.0 mi North 4.6 mph - N/A   Overcast
4:23 AM 44.6 °F 42.2 °F 44.6 °F 100% 30.61 in 8.0 mi NE 4.6 mph - N/A   Overcast
4:34 AM 44.6 °F 43.1 °F 42.8 °F 93% 30.61 in 10.0 mi NE 3.5 mph - N/A   Overcast
4:53 AM 45.0 °F - 44.1 °F 97% 30.61 in 9.0 mi Calm Calm - N/A   Overcast
5:53 AM 45.0 °F - 43.0 °F 93% 30.59 in 9.0 mi Calm Calm - N/A   Overcast
6:37 AM 42.8 °F - 39.2 °F 87% 30.56 in 8.0 mi Calm Calm - N/A   Partly Cloudy
6:51 AM 41.0 °F - 39.2 °F 93% 30.56 in 6.0 mi Calm Calm - N/A   Mostly Cloudy
6:53 AM 41.0 °F 39.0 °F 39.0 °F 93% 30.57 in 6.0 mi SSE 3.5 mph - N/A   Mostly Cloudy
7:03 AM 41.0 °F 39.0 °F 39.2 °F 93% 30.56 in 1.8 mi South 3.5 mph - N/A   Overcast
7:09 AM 41.0 °F 38.0 °F 39.2 °F 93% 30.56 in 0.2 mi South 4.6 mph - N/A Fog Fog
7:46 AM 41.0 °F - 39.2 °F 93% 30.55 in 1.0 mi Calm Calm - N/A   Mist
7:53 AM 42.1 °F 40.2 °F 39.9 °F 92% 30.56 in 1.8 mi South 3.5 mph - N/A   Overcast
7:58 AM 41.0 °F - 41.0 °F 100% 30.56 in 0.8 mi Calm Calm - N/A   Overcast
8:09 AM 42.8 °F - 41.0 °F 93% 30.57 in 0.5 mi Calm Calm - N/A Fog Fog
8:17 AM 42.8 °F - 41.0 °F 93% 30.57 in 0.8 mi Calm Calm - N/A   Overcast
8:53 AM 44.1 °F - 42.1 °F 93% 30.59 in 2.0 mi Calm Calm - N/A   Overcast
9:53 AM 43.0 °F 41.3 °F 42.1 °F 97% 30.61 in 2.0 mi NE 3.5 mph - N/A   Overcast
10:24 AM 44.6 °F 42.2 °F 42.8 °F 93% 30.61 in 2.0 mi NNE 4.6 mph - N/A   Overcast
10:53 AM 45.0 °F - 42.1 °F 90% 30.61 in 2.0 mi Calm Calm - N/A   Overcast
10:57 AM 44.6 °F - 42.8 °F 93% 30.60 in 3.0 mi Calm Calm - N/A   Overcast
11:53 AM 46.9 °F - 43.0 °F 86% 30.59 in 7.0 mi Calm Calm - N/A   Mostly Cloudy
11:55 AM 46.4 °F - 42.8 °F 87% 30.59 in 10.0 mi Calm Calm - N/A   Mostly Cloudy
12:05 PM 46.4 °F 45.2 °F 42.8 °F 87% 30.58 in 10.0 mi ENE 3.5 mph - N/A   Scattered Clouds
12:53 PM 48.0 °F - 43.0 °F 83% 30.56 in 9.0 mi Calm Calm - N/A   Scattered Clouds
1:53 PM 48.0 °F - 43.0 °F 83% 30.55 in 10.0 mi Calm Calm - N/A   Partly Cloudy
2:53 PM 48.0 °F - 42.1 °F 80% 30.53 in 10.0 mi North 4.6 mph - N/A   Clear
3:53 PM 46.9 °F - 42.1 °F 83% 30.54 in 10.0 mi North 5.8 mph - N/A   Clear
4:53 PM 46.0 °F 42.5 °F 42.1 °F 86% 30.53 in 10.0 mi North 6.9 mph - N/A   Clear
5:53 PM 46.0 °F 44.8 °F 42.1 °F 86% 30.53 in 10.0 mi NE 3.5 mph - N/A   Clear
6:53 PM 45.0 °F 42.6 °F 42.1 °F 90% 30.52 in 10.0 mi North 4.6 mph - N/A   Clear
7:53 PM 44.1 °F - 39.9 °F 85% 30.52 in 10.0 mi Calm Calm - N/A   Clear
8:53 PM 44.1 °F 40.8 °F 42.1 °F 93% 30.52 in 10.0 mi NNE 5.8 mph - N/A   Clear
9:00 PM 44.6 °F 40.7 °F 42.8 °F 93% 30.51 in 10.0 mi North 6.9 mph - N/A   Partly Cloudy
9:15 PM 44.6 °F 40.7 °F 42.8 °F 93% 30.51 in 9.0 mi NNE 6.9 mph - N/A   Mostly Cloudy
9:44 PM 44.6 °F 40.7 °F 42.8 °F 93% 30.51 in 8.0 mi North 6.9 mph - N/A   Overcast
9:53 PM 44.1 °F 40.8 °F 42.1 °F 93% 30.51 in 9.0 mi North 5.8 mph - N/A   Mostly Cloudy
10:02 PM 44.6 °F 41.4 °F 42.8 °F 93% 30.51 in 9.0 mi North 5.8 mph - N/A   Mostly Cloudy
10:33 PM 44.6 °F 39.7 °F 42.8 °F 93% 30.51 in 8.0 mi North 9.2 mph - N/A   Overcast
10:53 PM 44.1 °F 39.5 °F 42.1 °F 93% 30.52 in 7.0 mi NNE 8.1 mph - N/A   Overcast
11:53 PM 43.0 °F 41.3 °F 42.1 °F 97% 30.51 in 9.0 mi North 3.5 mph - N/A   Overcast